Torna al catalogo

KUIPER-00077

AttivoComunicazioniLEO
NORAD 64824·PAYLOAD·🇺🇸 United States

Lanciato Jul 16, 2025 da Cape Canaveral Space Force Station

Loading…

Prossimi Passaggi (prossime 24 ore)

TLE

AggiornatoSource: CelesTrak SupGP

Epoca: Sep 14, 2026, 21:16 UTC

1 64824C 25151J   26257.88668982 -.00017547  00000+0 -22973-2 0  2572
2 64824  51.9002 181.4946 0001078  79.4713 135.9124 14.79941653    18

Traccia KUIPER-00077 in tempo reale con AllMySat

Download on the App Store